Weather History for Sanford, NC

Change the Weather History Date:

Wednesday, February 19, 2014

  Actual Average (KRDU) Record (KRDU)
Temperature  
Mean Temperature 55 °F 45 °F  
Max Temperature 73 °F 56 °F 76 °F (1939)
Min Temperature 37 °F 34 °F 11 °F (1979)
Degree Days  
Heating Degree Days 10 20  
Month to date heating degree days 407  
Since 1 July heating degree days 2404  
Cooling Degree Days 0 0  
Month to date cooling degree days 0  
Year to date cooling degree days 0  
Growing Degree Days 5 (Base 50)    
Moisture  
Dew Point 52 °F    
Average Humidity 84    
Maximum Humidity 99    
Minimum Humidity 54    
Precipitation  
Precipitation 0.44 in 0.12 in 1.65 in (1924)
Month to date precipitation 2.13  
Year to date precipitation 5.63  
Snow  
Snow 0.00 in 0.10 in 0.90 in (2012)
Month to date snowfall 1.4  
Since 1 July snowfall 5.0  
Snow Depth -    
Sea Level Pressure  
Sea Level Pressure 29.99 in    
Wind  
Wind Speed 3 mph (SW)    
Max Wind Speed 13 mph    
Max Gust Speed 22 mph    
Visibility 8 miles    
Events Fog , Rain    
T = Trace of Precipitation, MM = Missing Value Source: NWS Daily Summary

Daily Weather History Graph

Daily Weather History Graph

Search for Another Location

Airport:

Trip Planner

Search our weather history database for the weather conditions in past years. The results will help you decide how hot, cold, wet, or windy it might be!

Date:

Astronomy

Feb. 19, 2014 Rise Set
Actual Time 6:58 AM EST 6:02 PM EST
Civil Twilight 6:32 AM EST 6:28 PM EST
Nautical Twilight 6:02 AM EST 6:58 PM EST
Astronomical Twilight 5:33 AM EST 7:27 PM EST
Moon 10:42 PM EST 9:13 AM EST
Length of Visible Light 11h 55m
Length of Day
11h 03m
Waning Gibbous, 80% of the Moon is Illuminated
Feb 19
Waning Gibbous
Feb 22
Last Quarter
Mar 1
New
Mar 8
First Quarter
Mar 16
Full

Hourly Weather History & Observations

Time (EST) Temp. Dew Point Humidity Pressure Visibility Wind Dir Wind Speed Gust Speed Precip Events Conditions
12:15 AM 37.2 °F 31.8 °F 81% 30.09 in 10.0 mi Calm Calm - N/A   Unknown
12:55 AM 37.4 °F 32.0 °F 81% 30.09 in 10.0 mi Calm Calm - N/A   Unknown
1:15 AM 38.7 °F 31.5 °F 75% 30.09 in 10.0 mi Calm Calm - N/A   Unknown
1:35 AM 38.1 °F 32.7 °F 81% 30.08 in 10.0 mi Calm Calm - N/A   Unknown
1:55 AM 38.1 °F 32.4 °F 80% 30.07 in 10.0 mi Calm Calm - N/A   Unknown
2:15 AM 38.1 °F 33.4 °F 83% 30.08 in 10.0 mi Calm Calm - N/A   Unknown
2:35 AM 37.4 °F 33.1 °F 84% 30.05 in 10.0 mi Calm Calm - N/A   Unknown
2:55 AM 37.2 °F 34.0 °F 88% 30.04 in 10.0 mi Calm Calm - N/A   Unknown
3:15 AM 39.9 °F 36.9 °F 89% 30.03 in 7.0 mi Calm Calm - N/A Rain Light Rain
3:35 AM 40.1 °F 37.6 °F 91% 30.02 in 10.0 mi Calm Calm - N/A   Unknown
3:55 AM 41.0 °F 38.5 °F 91% 30.01 in 10.0 mi Calm Calm - N/A Rain Light Rain
4:15 AM 41.9 °F 40.5 °F 95% 30.01 in 10.0 mi Calm Calm - 0.01 in Rain Light Rain
4:35 AM 47.8 °F 47.1 °F 97% 30.02 in 4.0 mi West 4.6 mph - 0.05 in Rain Rain
4:55 AM 48.6 °F 47.7 °F 97% 30.04 in 2.5 mi Calm Calm - 0.11 in Rain Heavy Rain
5:15 AM 49.6 °F 48.9 °F 97% 30.03 in 1.2 mi Calm Calm - 0.09 in Rain Heavy Rain
5:35 AM 51.8 °F 51.1 °F 97% 30.00 in 2.5 mi South 3.5 mph - 0.17 in Rain Rain
5:55 AM 51.8 °F 51.1 °F 97% 30.01 in 3.0 mi SSW 3.5 mph - 0.20 in Rain Heavy Rain
6:15 AM 52.2 °F 51.8 °F 99% 29.98 in 3.0 mi SE 8.1 mph - 0.05 in Rain Heavy Rain
6:35 AM 52.9 °F 52.2 °F 97% 29.98 in 7.0 mi South 8.1 mph - 0.09 in Rain Rain
6:55 AM 52.9 °F 52.0 °F 97% 29.99 in 10.0 mi South 9.2 mph - 0.10 in Rain Rain
7:15 AM 52.9 °F 51.8 °F 96% 29.99 in 10.0 mi South 4.6 mph - 0.02 in Rain Rain
7:35 AM 53.1 °F 52.2 °F 97% 29.98 in 10.0 mi South 6.9 mph - 0.03 in Rain Light Rain
7:55 AM 53.8 °F 52.7 °F 96% 29.99 in 10.0 mi South 6.9 mph - 0.03 in   Unknown
8:15 AM 54.5 °F 53.2 °F 96% 29.99 in 10.0 mi SSW 5.8 mph - N/A   Unknown
8:35 AM 55.4 °F 54.0 °F 95% 29.98 in 5.0 mi South 6.9 mph - N/A   Mist
8:55 AM 56.1 °F 54.5 °F 94% 29.98 in 5.0 mi South 6.9 mph - N/A   Mist
9:15 AM 57.2 °F 55.2 °F 93% 29.99 in 7.0 mi SSW 11.5 mph 17.3 mph N/A   Unknown
9:35 AM 58.1 °F 55.8 °F 92% 29.98 in 7.0 mi South 11.5 mph - N/A   Unknown
9:55 AM 59.0 °F 56.1 °F 90% 29.98 in 7.0 mi SSW 9.2 mph - N/A   Unknown
10:15 AM 59.4 °F 56.3 °F 90% 29.97 in 10.0 mi SSW 9.2 mph - N/A   Unknown
10:35 AM 60.3 °F 56.7 °F 88% 29.98 in 10.0 mi SW 8.1 mph - N/A   Unknown
10:55 AM 61.0 °F 57.2 °F 87% 29.97 in 10.0 mi SW 5.8 mph - N/A   Unknown
11:15 AM 61.2 °F 57.2 °F 87% 29.97 in 10.0 mi SSW 6.9 mph - N/A   Unknown
11:35 AM 61.7 °F 57.4 °F 86% 29.97 in 10.0 mi SW 8.1 mph - N/A   Unknown
11:55 AM 62.1 °F 58.1 °F 87% 29.96 in 10.0 mi SW 8.1 mph - N/A   Unknown
12:15 PM 63.5 °F 58.8 °F 85% 29.95 in 10.0 mi SW 6.9 mph - N/A   Unknown
12:35 PM 66.0 °F 59.0 °F 78% 29.94 in 10.0 mi SW 11.5 mph 19.6 mph N/A   Unknown
12:55 PM 66.9 °F 58.5 °F 74% 29.93 in 10.0 mi WSW 12.7 mph 18.4 mph N/A   Unknown
1:15 PM 68.0 °F 58.5 °F 71% 29.92 in 10.0 mi WSW 12.7 mph 17.3 mph N/A   Unknown
1:35 PM 68.9 °F 58.5 °F 69% 29.92 in 10.0 mi SW 11.5 mph 16.1 mph N/A   Unknown
1:55 PM 69.6 °F 58.6 °F 68% 29.91 in 10.0 mi WSW 8.1 mph - N/A   Unknown
2:15 PM 70.2 °F 58.1 °F 65% 29.91 in 10.0 mi WSW 10.4 mph 19.6 mph N/A   Unknown
2:35 PM 71.2 °F 56.8 °F 60% 29.91 in 10.0 mi WSW 9.2 mph 20.7 mph N/A   Unknown
2:55 PM 71.4 °F 56.3 °F 59% 29.91 in 10.0 mi WSW 8.1 mph 18.4 mph N/A   Unknown
3:15 PM 72.0 °F 56.3 °F 58% 29.91 in 10.0 mi WSW 10.4 mph - N/A   Unknown
3:35 PM 72.3 °F 56.8 °F 58% 29.90 in 10.0 mi SW 9.2 mph - N/A   Unknown
3:55 PM 72.9 °F 55.9 °F 55% 29.91 in 10.0 mi WSW 9.2 mph 18.4 mph N/A   Unknown
4:15 PM 73.4 °F 55.6 °F 54% 29.91 in 10.0 mi WSW 10.4 mph 21.9 mph N/A   Unknown
4:35 PM 72.7 °F 56.1 °F 56% 29.92 in 10.0 mi WSW 8.1 mph - N/A   Unknown
4:55 PM 72.1 °F 56.3 °F 57% 29.92 in 10.0 mi SW 5.8 mph - N/A   Unknown
5:15 PM 72.1 °F 56.7 °F 58% 29.93 in 10.0 mi SW 6.9 mph - N/A   Unknown
5:35 PM 70.9 °F 56.5 °F 60% 29.93 in 10.0 mi SSW 3.5 mph - N/A   Unknown
5:55 PM 67.6 °F 57.0 °F 69% 29.94 in 10.0 mi Calm Calm - N/A   Unknown
6:15 PM 65.3 °F 56.8 °F 74% 29.96 in 10.0 mi Calm Calm - N/A   Unknown
6:35 PM 61.9 °F 57.6 °F 86% 29.97 in 10.0 mi Calm Calm - N/A   Unknown
6:55 PM 60.8 °F 58.1 °F 91% 29.98 in 10.0 mi Calm Calm - N/A   Unknown
7:15 PM 60.1 °F 57.9 °F 93% 29.99 in 10.0 mi Calm Calm - N/A   Unknown
7:35 PM 58.3 °F 57.2 °F 96% 29.99 in 5.0 mi Calm Calm - N/A   Mist
7:55 PM 55.9 °F 55.0 °F 97% 30.00 in 5.0 mi South 3.5 mph - N/A   Mist
8:15 PM 56.1 °F 55.4 °F 97% 30.01 in 7.0 mi Calm Calm - N/A   Unknown
8:35 PM 57.6 °F 55.9 °F 94% 30.01 in 10.0 mi SW 4.6 mph - N/A   Unknown
8:55 PM 60.1 °F 55.9 °F 86% 30.02 in 10.0 mi Calm Calm - N/A   Unknown
9:15 PM 57.7 °F 55.8 °F 93% 30.03 in 10.0 mi Calm Calm - N/A   Unknown
9:35 PM 54.7 °F 53.4 °F 96% 30.04 in - Calm Calm - N/A   Unknown
9:55 PM 54.5 °F 53.4 °F 96% 30.05 in 7.0 mi Calm Calm - N/A   Unknown
10:15 PM 54.9 °F 54.0 °F 97% 30.06 in 7.0 mi Calm Calm - N/A   Unknown
10:35 PM 54.9 °F 54.3 °F 98% 30.06 in 7.0 mi Calm Calm - N/A   Unknown
10:55 PM 54.1 °F 53.2 °F 97% 30.07 in 5.0 mi Calm Calm - N/A   Mist
11:35 PM 49.8 °F 48.9 °F 97% 30.08 in 2.0 mi Calm Calm - N/A   Mist
11:55 PM 50.7 °F 50.2 °F 98% 30.08 in 0.5 mi North 3.5 mph - N/A Fog Fog